Location: Jackson
(42.2460°N, 84.4010°W)
Time: 10:36:52
(UTC-04:00)

Injun/Solrad 3 - Pass Details

Date: 10 February 2026
Orbit: 871 x 985 km, 66.8° (Epoch: 16 March)

Event Time Altitude Azimuth Distance (km) Brightness Sun altitude
Rises 22:16:45 0° 330° (NNW) 3,566 11.5 -46.3°
Reaches altitude 10° 22:19:15 10° 331° (NNW) 2,637 10.7 -46.7°
Enters shadow 22:19:29 11° 331° (NNW) 2,551 10.6 -46.8°
